Home > Weather > Langen > Past weeks

Flag for Germany Weather for the Past 2 Weeks in Langen, Hesse, Germany

Now
45 °F

Clear.


Feels Like: 42 °F
Forecast: 38 / 58 °F
Wind: 5 mph from South

Location: Frankfurt-M-Flughafen Airport

Current Time: May 3, 2016 at 7:13:25 AM

Latest Report: May 3, 2016 at 6:20 AM


Visibility: 10 mi

Pressure: 30.07 "Hg

Humidity: 87%

Dew Point: 41 °F

Location of LangenLocation

Historic Weather in Langen — Graph

°F

Langen Temperature Yesterday

Maximum temperature yesterday: 70 °F (at 6:20 PM)
Minimum temperature yesterday: 46 °F (at 5:50 AM)
Average temperature yesterday: 58 °F

High & Low Weather Summary for the Past Weeks

 TemperatureHumidityPressure
High70 °F (Apr 21, 4:50 PM)100% (Apr 19, 4:50 AM)30.45 "Hg (Apr 19, 4:50 AM)
Low30 °F (Apr 24, 4:50 AM)22% (Apr 20, 5:50 PM)29.56 "Hg (Apr 26, 12:20 AM)
Average48 °F62%30.02 "Hg
* Reported Apr 18 5:20 AM — May 3 5:20 AM, Langen, Weather by CustomWeather, © 2016

Note: Actual official high and low records may vary slightly from our data, if they occured in-between our weather recording intervals... More about our weather records

Advertising

Langen Weather History for the Previous 24 Hours

Scroll right to see more
 ConditionsComfort  
Time TempWeatherWind HumidityBarometerVisibility
5:20 AM
Tue, May 3
45 °FClear.6 mph87%30.07 "Hg10 mi
4:20 AM48 °FClear.3 mph76%30.07 "Hg10 mi
3:20 AM43 °FClear.5 mph87%30.07 "Hg10 mi
2:50 AM45 °FClear.3 mph81%30.07 "Hg10 mi
2:20 AM45 °FClear.1 mph81%30.07 "Hg10 mi
1:50 AM45 °FClear.2 mph81%30.07 "Hg10 mi
1:20 AM46 °FClear.2 mph76%30.07 "Hg10 mi
12:50 AM46 °FPassing clouds.3 mph76%30.07 "HgN/A
12:20 AM48 °FClear.2 mph71%30.09 "Hg10 mi
11:50 PM
Mon, May 2
48 °FClear.2 mph71%30.09 "Hg10 mi
11:20 PM50 °FClear.2 mph67%30.09 "Hg10 mi
10:50 PM52 °FPassing clouds.5 mph62%30.09 "HgN/A
10:20 PM52 °FClear.2 mph62%30.09 "Hg10 mi
9:50 PM54 °FPassing clouds.3 mph54%30.09 "HgN/A
9:20 PM55 °FSunny.1 mph51%30.09 "Hg10 mi
8:50 PM59 °FSunny.2 mph42%30.09 "Hg10 mi
8:20 PM63 °FSunny.3 mph37%30.09 "Hg10 mi
7:50 PM68 °FSunny.3 mph28%30.09 "Hg10 mi
7:20 PM68 °FPassing clouds.5 mph30%30.09 "HgN/A
6:50 PM68 °FPassing clouds.6 mph28%30.09 "HgN/A
6:20 PM70 °FPassing clouds.5 mph27%30.09 "HgN/A
5:50 PM68 °FPassing clouds.8 mph28%30.09 "HgN/A
5:20 PM68 °FSunny.7 mph28%30.12 "Hg10 mi
4:50 PM68 °FPassing clouds.8 mph30%30.12 "HgN/A
4:20 PM68 °FPassing clouds.9 mph28%30.12 "HgN/A
3:50 PM68 °FPassing clouds.8 mph30%30.15 "HgN/A
3:20 PM68 °FPassing clouds.9 mph33%30.15 "HgN/A
2:50 PM66 °FPassing clouds.9 mph32%30.15 "HgN/A
2:20 PM66 °FPassing clouds.9 mph32%30.18 "HgN/A
1:50 PM66 °FSunny.5 mph35%30.18 "Hg10 mi
1:20 PM66 °FPassing clouds.9 mph32%30.18 "HgN/A
12:50 PM64 °FSunny.9 mph34%30.21 "Hg10 mi
12:20 PM64 °FSunny.6 mph37%30.21 "Hg10 mi
11:50 AM63 °FPassing clouds.7 mph39%30.21 "HgN/A
11:20 AM63 °FPassing clouds.8 mph42%30.24 "HgN/A
10:50 AM61 °FPassing clouds.7 mph48%30.24 "HgN/A
10:20 AM59 °FPassing clouds.5 mph51%30.24 "HgN/A
9:50 AM57 °FPassing clouds.5 mph55%30.24 "HgN/A
9:20 AM55 °FPassing clouds.7 mph63%30.24 "HgN/A
8:20 AM54 °FSunny.12 mph63%30.24 "Hg10 mi
7:20 AM50 °FSunny.12 mph76%30.24 "Hg10 mi
Weather by CustomWeather, © 2016

See weather overviewHow to use our weather pages